Weather History for KMER - March, 2013

Change the Weather History Date:

Saturday, March 9, 2013

  Actual Average (KMCE) Record (KMCE)
Temperature  
Mean Temperature 50 °F 53 °F  
Max Temperature 66 °F 64 °F 79 °F (2004)
Min Temperature 35 °F 41 °F 32 °F (2002)
Degree Days  
Heating Degree Days 14    
Month to date heating degree days  
Since 1 July heating degree days  
Cooling Degree Days 0    
Month to date cooling degree days  
Year to date cooling degree days  
Moisture  
Dew Point 42 °F    
Average Humidity 89    
Maximum Humidity 100    
Minimum Humidity 32    
Precipitation  
Precipitation 0.00 in 0.09 in 0.09 in (1999)
Month to date precipitation 0.78  
Year to date precipitation 5.73  
Snow  
Snow 0.00 in - - ()
Month to date snowfall  
Since 1 July snowfall  
Snow Depth -    
Sea Level Pressure  
Sea Level Pressure 30.19 in    
Wind  
Wind Speed 5 mph (SE)    
Max Wind Speed 109 mph    
Max Gust Speed 20 mph    
Visibility 9 miles    
Events      
T = Trace of Precipitation, MM = Missing Value Source: NWS Daily Summary

Daily Weather History Graph

Daily Weather History Graph

Search for Another Location

Airport or City:

Trip Planner

Search our weather history database for the weather conditions in past years. The results will help you decide how hot, cold, wet, or windy it might be!

Date:

Astronomy

Mar. 09, 2013 Rise Set
Actual Time 6:21 AM PST 6:04 PM PST
Civil Twilight 5:55 AM PST 6:30 PM PST
Nautical Twilight 5:25 AM PST 7:00 PM PST
Astronomical Twilight 4:55 AM PST 7:30 PM PST
Moon 4:46 AM PST (3/9) 4:13 PM PST (3/9)
Length of Visible Light 12h 34m
Length of Day
11h 42m
Waning Crescent, 5% of the Moon is Illuminated
Mar 9
Waning Crescent
Mar 11
New
Mar 19
First Quarter
Mar 27
Full
Apr 2
Last Quarter

Hourly Weather History & Observations

Time (PST) Temp. Windchill Dew Point Humidity Pressure Visibility Wind Dir Wind Speed Gust Speed Precip Events Conditions
12:15 AM 42.8 °F - 42.8 °F 100% 30.05 in 10.0 mi North - - N/A   Clear
12:35 AM 42.8 °F 41.1 °F 42.8 °F 100% 30.06 in 10.0 mi West 3.5 mph - N/A   Clear
12:55 AM 44.6 °F - 42.8 °F 93% 30.06 in 10.0 mi Calm Calm - N/A   Clear
1:15 AM 39.2 °F 35.9 °F 39.2 °F 100% 30.07 in 10.0 mi SSW 4.6 mph - N/A   Clear
1:35 AM 39.2 °F - 39.2 °F 100% 30.07 in 10.0 mi Calm Calm - N/A   Clear
1:55 AM 41.0 °F - 41.0 °F 100% 30.08 in 10.0 mi Calm Calm - N/A   Clear
2:15 AM 39.2 °F - 39.2 °F 100% 30.08 in 10.0 mi Calm Calm - N/A   Clear
2:35 AM 41.0 °F - 41.0 °F 100% 30.08 in 10.0 mi Calm Calm - N/A   Partly Cloudy
2:55 AM 37.4 °F - 37.4 °F 100% 30.08 in 10.0 mi Calm Calm - N/A   Partly Cloudy
3:15 AM 37.4 °F - 37.4 °F 100% 30.09 in 10.0 mi Calm Calm - N/A   Partly Cloudy
3:35 AM 37.4 °F - 37.4 °F 100% 30.09 in 10.0 mi Calm Calm - N/A   Clear
3:55 AM 37.4 °F 34.9 °F 37.4 °F 100% 30.10 in 10.0 mi South 3.5 mph - N/A   Clear
4:15 AM 37.4 °F - 37.4 °F 100% 30.11 in 10.0 mi Calm Calm - N/A   Clear
4:35 AM 37.4 °F - 37.4 °F 100% 30.12 in 10.0 mi Calm Calm - N/A   Clear
4:55 AM 37.4 °F - 37.4 °F 100% 30.13 in 10.0 mi Calm Calm - N/A   Clear
5:15 AM 37.4 °F - 37.4 °F 100% 30.13 in 9.0 mi Calm Calm - N/A   Clear
5:35 AM 35.6 °F - 35.6 °F 100% 30.14 in 5.0 mi Calm Calm - N/A   Clear
5:55 AM 35.6 °F - 35.6 °F 100% 30.15 in 7.0 mi Calm Calm - N/A   Clear
6:45 AM 37.4 °F - 37.4 °F 100% 30.19 in 7.0 mi Calm Calm - N/A   Clear
7:45 AM 42.8 °F - 42.8 °F 100% 30.21 in 7.0 mi Calm Calm - N/A   Clear
8:45 AM 48.2 °F - 48.2 °F 100% 30.24 in 7.0 mi NNW 109.3 mph - N/A   Clear
9:45 AM 53.6 °F - 51.8 °F 94% 30.24 in 7.0 mi North 5.8 mph - N/A   Scattered Clouds
10:45 AM 55.4 °F - 46.4 °F 72% 30.24 in 7.0 mi NW 9.2 mph 17.3 mph N/A   Mostly Cloudy
11:45 AM 59.0 °F - 46.4 °F 63% 30.24 in 7.0 mi North 15.0 mph 18.4 mph N/A   Mostly Cloudy
12:45 PM 60.8 °F - 44.6 °F 55% 30.24 in 7.0 mi NNW 12.7 mph 19.6 mph N/A   Mostly Cloudy
1:45 PM 62.6 °F - 44.6 °F 52% 30.23 in 10.0 mi NNW 12.7 mph 17.3 mph N/A   Partly Cloudy
2:45 PM 66.2 °F - 39.2 °F 37% 30.23 in 10.0 mi North 9.2 mph - N/A   Clear
3:45 PM 66.2 °F - 37.4 °F 35% 30.22 in 10.0 mi NNW 16.1 mph - N/A   Clear
4:45 PM 66.2 °F - 35.6 °F 32% 30.22 in 10.0 mi NNW 11.5 mph - N/A   Clear
5:45 PM 62.6 °F - 35.6 °F 37% 30.23 in 10.0 mi North 5.8 mph - N/A   Clear
7:45 PM 51.8 °F - 46.4 °F 82% 30.26 in 10.0 mi Variable 4.6 mph - N/A   Clear
8:15 PM 51.8 °F - 46.4 °F 82% 30.27 in 10.0 mi South 4.6 mph - N/A   Clear
8:35 PM 50.0 °F - 46.4 °F 87% 30.27 in 10.0 mi South 5.8 mph - N/A   Clear
8:45 PM 48.2 °F - 46.4 °F 93% 30.28 in 10.0 mi Variable 4.6 mph - N/A   Clear
8:55 PM 48.2 °F - 48.2 °F 100% 30.28 in 10.0 mi SSE 5.8 mph - N/A   Clear
9:15 PM 46.4 °F - 46.4 °F 100% 30.28 in 10.0 mi Calm Calm - N/A   Clear
9:35 PM 46.4 °F 43.5 °F 46.4 °F 100% 30.29 in 10.0 mi SE 5.8 mph - N/A   Clear
9:55 PM 44.6 °F 40.7 °F 44.6 °F 100% 30.28 in 10.0 mi SSE 6.9 mph - N/A   Clear
10:15 PM 44.6 °F 40.7 °F 44.6 °F 100% 30.29 in 10.0 mi SSE 6.9 mph - N/A   Clear
10:35 PM 44.6 °F 40.7 °F 44.6 °F 100% 30.29 in 10.0 mi SE 6.9 mph - N/A   Clear
10:55 PM 44.6 °F 40.7 °F 44.6 °F 100% 30.30 in 10.0 mi SSE 6.9 mph - N/A   Clear
11:15 PM 44.6 °F 41.4 °F 44.6 °F 100% 30.30 in 10.0 mi East 5.8 mph - N/A   Clear
11:35 PM 46.4 °F 40.1 °F 46.4 °F 100% 30.29 in 10.0 mi SSE 15.0 mph - N/A   Clear
11:55 PM 44.6 °F 40.2 °F 44.6 °F 100% 30.30 in 10.0 mi SE 8.1 mph - N/A   Clear